Wenatchee, WA

4:18 PM PST on November 18, 2017 (GMT -0800)
Pangborn Memorial

Weather History for KEAT - September, 2014

Change the Weather History Date:

Tuesday, September 16, 2014

  Actual Average Record
Temperature  
Mean Temperature 74 °F 57 °F  
Max Temperature 88 °F 73 °F 92 °F (1981)
Min Temperature 59 °F 42 °F 35 °F (2017)
Degree Days  
Heating Degree Days 0 8  
Month to date heating degree days 16 96  
Since 1 July heating degree days 16 207  
Cooling Degree Days 9 0  
Month to date cooling degree days 56 14  
Year to date cooling degree days 1147 247  
Growing Degree Days 24 (Base 50)    
Moisture  
Dew Point 39 °F    
Average Humidity 32    
Maximum Humidity 46    
Minimum Humidity 18    
Precipitation  
Precipitation 0.00 in 0.02 in 0.81 in (1986)
Month to date precipitation T 0.31  
Year to date precipitation 3.96 10.73  
Snow  
Snow 0.00 in 0.00 in - ()
Month to date snowfall 0.0  
Since 1 July snowfall 0.0  
Since 1 September snowfall 0.0  
Snow Depth -    
Sea Level Pressure  
Sea Level Pressure 29.81 in    
Wind  
Wind Speed 6 mph (NW)    
Max Wind Speed 15 mph    
Max Gust Speed 17 mph    
Visibility 10 miles    
Events      
T = Trace of Precipitation, MM = Missing Value Source: NWS Daily Summary

Daily Weather History Graph

Daily Weather History Graph

Search for Another Location

Airport or City:

Trip Planner

Search our weather history database for the weather conditions in past years. The results will help you decide how hot, cold, wet, or windy it might be!

Date:

Astronomy

Sep. 16, 2014 Rise Set
Actual Time 6:39 AM PDT 7:10 PM PDT
Civil Twilight 6:08 AM PDT 7:41 PM PDT
Nautical Twilight 5:32 AM PDT 8:17 PM PDT
Astronomical Twilight 4:54 AM PDT 8:55 PM PDT
Moon No Moon Rise 2:56 PM PDT (9/16)
Length of Visible Light 13h 32m
Length of Day
12h 30m
Last Quarter, 43% of the Moon is Illuminated
Sep 16
Last Quarter
Sep 23
New
Oct 1
First Quarter
Oct 8
Full
Oct 15
Last Quarter

Hourly Weather History & Observations

Time (PDT) Temp. Dew Point Humidity Pressure Visibility Wind Dir Wind Speed Gust Speed Precip Events Conditions
12:55 AM 66.0 °F 37.0 °F 34% 29.87 in 10.0 mi WNW 10.4 mph - N/A   Clear
1:55 AM 66.0 °F 37.0 °F 34% 29.87 in 10.0 mi NW 11.5 mph - N/A   Clear
2:55 AM 62.1 °F 37.9 °F 41% 29.87 in 10.0 mi West 9.2 mph - N/A   Clear
3:55 AM 61.0 °F 37.0 °F 41% 29.87 in 10.0 mi West 8.1 mph - N/A   Clear
4:55 AM 61.0 °F 37.9 °F 42% 29.87 in 10.0 mi WNW 9.2 mph - N/A   Clear
5:55 AM 60.1 °F 39.0 °F 46% 29.86 in 10.0 mi NW 8.1 mph - N/A   Clear
6:55 AM 60.1 °F 39.0 °F 46% 29.87 in 10.0 mi Variable 3.5 mph - N/A   Clear
7:55 AM 60.1 °F 37.9 °F 44% 29.88 in 10.0 mi NW 4.6 mph - N/A   Clear
8:55 AM 66.0 °F 37.9 °F 36% 29.87 in 10.0 mi NW 5.8 mph - N/A   Clear
9:55 AM 69.1 °F 39.0 °F 33% 29.86 in 10.0 mi NW 4.6 mph - N/A   Clear
10:55 AM 71.1 °F 41.0 °F 34% 29.85 in 10.0 mi Calm Calm - N/A   Clear
11:55 AM 75.0 °F 37.0 °F 25% 29.83 in 10.0 mi WSW 4.6 mph - N/A   Clear
12:55 PM 81.0 °F 39.0 °F 22% 29.81 in 10.0 mi Calm Calm - N/A   Clear
1:55 PM 84.9 °F 37.0 °F 18% 29.78 in 10.0 mi Calm Calm - N/A   Clear
2:55 PM 84.9 °F 37.0 °F 18% 29.76 in 10.0 mi ESE 4.6 mph - N/A   Clear
3:55 PM 87.1 °F 39.0 °F 18% 29.75 in 10.0 mi East 5.8 mph - N/A   Clear
4:55 PM 86.0 °F 41.0 °F 20% 29.73 in 10.0 mi East 6.9 mph - N/A   Clear
5:55 PM 82.9 °F 39.9 °F 22% 29.73 in 10.0 mi ESE 6.9 mph - N/A   Clear
7:55 PM 77.0 °F 37.9 °F 24% 29.73 in 10.0 mi ENE 5.8 mph - N/A   Clear
9:55 PM 73.9 °F 44.1 °F 34% 29.74 in 10.0 mi WNW 4.6 mph - N/A   Clear
10:55 PM 75.0 °F 45.0 °F 34% 29.75 in 10.0 mi WNW 5.8 mph - N/A   Clear
11:55 PM 73.9 °F 45.0 °F 35% 29.75 in 10.0 mi NNW 9.2 mph - N/A   Clear